Вернуться в каталог

NOAA 16 DEB

АктивенPO
NORAD 42405·DEBRIS·🇺🇸 United States

Запущен Sep 21, 2000 с Vandenberg Space Force Base

Loading…

Ближайшие Пролёты (ближайшие 24 часа)

TLE

СвежийSource: Space-Track

Эпоха: Sep 13, 2026, 12:22 UTC

1 42405U 00055SZ  26256.51532250  .00004836  00000-0  11274-2 0  9997
2 42405  99.0154 154.6019 0020849 210.6007 149.3973 14.55171113546673

Отслеживайте NOAA 16 DEB в реальном времени с AllMySat

Download on the App Store